LiveATC.Net - Listen to live air traffic control over the Internet!


ICAO: KOAJ  IATA: OAJ   Airport: Albert J Ellis Airport
City: Jacksonville   State/Province: North Carolina
Country: United States   Continent: North America
KOAJ METAR Weather: KOAJ 251156Z 22004KT 10SM CLR 19/16 A2993 RMK AO2 SLP138 T01940161 10194 20139 52013
KOAJ Flight Activity (FlightAware)
KOAJ Airport Info   (iFlightPlanner)
KOAJ VFR Sectional Chart   (iFlightPlanner) 
KOAJ IFR Low Chart   (iFlightPlanner) 

KOAJ Gnd/Twr
Feed Status: DOWN
Last heard on: 2019-04-25 12:52:03 (0 days 0 hours 8 minutes ago)
KOAJ Gnd/Twr Audio Archives
FacilityFrequency
Ellis Ground125.400
Ellis Tower132.650

NOTICE

Unauthorized use prohibited. See LiveATC.net Terms of Service


Find LiveATC Audio Streams


Airport/ARTCC Code

Frequency Search
(e.g., 124.400, 128.75)
Site-wide search
 


Browse LiveATC Feeds
Top 50 LiveATC Feeds
LiveATC Feed Map
Bad Weather Areas

LiveATC FAQ
Offer LiveATC feed
Contact LiveATC.net
Press Inquiries

LiveATC on iPhone
LiveATC on Android

Windows Phone
Windows 8/10

LiveATC Mobile
(Mobile browser)

ATC Audio Archives
Interesting Recordings

LiveATC Forums


Home Page
About LiveATC.net
Make a Donation
Terms of Use
Privacy Policy

Canadian Air Freqs

AIRMETs/SIGMETs

FAA Airport Status
Nat'l Airspace Status
Arrival Demand Charts


Server Software By:
Icecast.org
Liquidsoap